Theta_e
288 288 288 290 290 290 290 290 290 289 290 287 285 284 286 283 282 283 288 292 289 289 291 291 291 291 290 290 291 292 293 293 293 293 292 292 292 293 293 293 293 293 293 294 294 295 295 296 296 297 298 298 298 298 299 300 301 302 304 304 304 305 306 307 308 311 314 320 322 321 321 321 321 321 322 322 322 322 321 321 320 319 318 318 316 315 315
286 287 287 289 289 289 289 289 289 290 290 289 289 288 288 285 285 289 292 289 286 289 289 291 291 292 292 291 292 292 291 291 292 292 291 291 291 291 292 292 293 293 293 294 294 294 295 295 295 296 297 297 298 298 299 300 300 302 303 304 304 304 304 305 307 309 311 316 321 321 321 321 321 322 322 321 321 320 320 320 319 319 317 314 315 315 313
285 287 288 288 288 288 287 288 289 289 289 289 290 290 289 290 288 289 288 286 284 289 291 291 292 292 292 292 290 290 290 291 291 290 290 291 291 291 292 292 292 293 293 294 294 294 294 295 295 296 296 297 298 298 299 299 300 301 303 303 303 303 303 304 306 307 309 311 315 320 320 321 321 321 321 321 320 319 319 319 318 317 315 313 312 312 312
283 287 286 286 287 288 286 286 287 288 287 285 286 286 289 289 286 288 287 285 284 288 290 290 290 290 289 289 289 289 289 290 290 289 290 290 290 291 291 292 292 292 293 293 293 294 294 295 295 295 296 297 298 298 298 299 300 301 302 302 303 303 303 304 305 305 307 309 311 316 320 320 321 321 321 319 318 319 318 316 316 314 313 312 310 309 309
282 286 284 284 281 282 282 283 285 288 289 289 289 289 289 289 291 287 286 286 287 288 290 288 288 288 288 288 288 288 289 290 289 289 289 290 290 291 291 291 292 292 292 293 293 294 294 295 295 296 296 296 297 298 298 299 300 300 300 301 302 303 303 303 303 305 306 307 309 312 318 320 320 320 320 318 317 316 316 315 313 312 310 308 307 306 307
284 285 285 283 279 275 278 288 291 291 287 288 285 284 287 288 290 286 288 287 289 289 288 287 286 287 287 288 289 290 289 289 289 289 290 290 291 291 291 292 291 292 292 293 293 294 294 295 296 296 297 297 297 298 298 298 298 298 299 299 301 302 302 303 303 303 305 305 306 308 312 317 318 317 317 316 313 312 312 311 310 308 307 305 304 304 304
283 284 282 279 274 274 286 292 292 292 291 289 287 288 288 289 289 289 288 288 288 288 288 288 287 287 289 290 289 289 291 291 290 289 289 290 290 290 291 291 291 292 292 292 292 292 293 295 296 296 295 296 297 297 297 297 297 297 297 298 299 300 301 302 302 303 303 304 305 306 307 309 313 313 311 308 308 306 306 306 305 304 304 302 301 301 301
283 281 277 274 271 283 290 291 292 293 293 291 290 287 289 289 289 289 287 287 287 287 287 287 288 288 288 289 290 290 291 291 290 289 289 290 291 290 291 291 291 292 292 292 292 292 294 294 295 295 295 296 296 296 297 296 296 295 296 296 297 299 300 301 301 302 302 303 303 304 304 303 303 303 303 303 302 302 301 300 300 300 300 300 300 300 301
281 280 279 278 284 284 286 286 288 289 286 287 286 283 285 290 291 289 286 287 287 287 287 287 287 288 288 286 287 290 290 291 291 291 291 291 292 292 292 292 292 293 294 293 294 294 294 294 294 294 294 295 295 296 296 296 295 294 295 295 296 298 299 300 301 301 302 302 302 302 302 302 301 300 300 300 300 300 298 297 296 296 296 297 298 299 299
280 279 277 279 279 277 282 287 291 293 293 292 291 288 284 290 290 290 288 286 286 286 287 287 287 288 286 283 283 289 291 291 291 292 292 293 293 293 293 293 293 294 294 295 295 294 293 294 294 294 294 294 294 294 294 294 294 294 294 294 295 297 298 299 300 300 301 302 301 301 301 300 300 300 299 298 298 298 296 295 295 295 296 297 297 298 297
278 277 276 275 275 277 283 286 289 291 292 292 290 286 283 288 290 290 289 287 287 287 286 287 287 286 284 283 284 288 290 291 291 291 291 292 292 293 293 293 293 294 294 295 295 294 294 294 294 294 293 294 294 294 294 293 293 293 293 293 294 295 296 298 298 299 300 301 301 301 299 299 299 298 297 297 297 297 297 297 296 297 297 295 296 296 297
274 275 274 273 275 277 286 289 289 291 292 293 288 279 279 288 291 291 290 288 288 288 288 288 288 286 282 282 285 290 290 291 290 290 290 290 291 293 294 294 294 295 295 295 294 294 294 294 295 295 294 294 294 294 294 293 293 293 293 293 294 295 296 296 297 298 299 300 300 301 300 300 299 299 299 298 297 297 297 297 296 296 296 296 295 295 296
276 278 277 278 280 286 289 289 291 292 292 291 282 278 282 289 292 291 291 290 290 290 289 290 285 286 287 288 290 291 291 291 291 291 291 291 292 293 293 294 295 294 294 294 294 294 295 295 296 296 295 294 293 294 294 293 293 293 294 294 294 294 294 295 295 296 297 298 299 300 301 301 300 299 299 298 298 297 297 297 296 296 295 295 295 294 295
273 273 275 276 278 285 290 292 292 293 289 281 279 286 292 292 290 291 292 291 291 291 290 288 287 287 289 290 291 290 291 290 291 292 292 293 293 294 295 295 295 294 294 294 294 294 295 295 296 296 296 294 294 293 293 293 294 295 295 295 295 294 294 294 294 294 295 296 298 300 301 301 299 299 299 299 298 298 297 297 296 296 296 295 295 295 295
274 271 274 274 273 282 290 291 291 291 284 283 289 290 291 291 290 290 290 290 290 290 288 289 288 289 289 289 290 290 290 290 291 291 292 292 292 292 293 293 294 294 293 293 293 293 294 295 295 295 295 294 294 294 292 293 295 295 295 295 294 293 294 293 293 293 294 294 295 297 298 300 300 299 299 299 299 298 297 297 296 295 295 295 295 294 294
273 269 271 274 281 285 291 290 285 288 291 292 292 290 287 290 290 289 288 289 289 289 288 288 288 288 288 289 289 289 289 290 290 291 291 292 292 292 293 294 294 294 293 294 293 294 294 294 294 295 295 294 294 294 293 294 295 295 295 295 294 293 293 293 293 293 293 293 294 294 296 297 299 299 299 299 298 298 297 296 295 295 294 295 294 293 293
274 274 279 285 288 291 293 293 291 292 293 293 292 291 289 288 288 290 288 288 289 290 289 288 288 288 288 288 289 288 289 289 290 290 291 291 291 291 292 292 293 293 292 292 293 294 294 294 294 294 294 294 293 293 294 296 295 295 295 295 294 293 293 293 293 293 293 292 292 293 294 295 295 296 298 298 297 297 297 296 295 294 294 294 293 293 293
288 289 290 291 291 291 291 293 294 292 292 292 292 291 289 289 290 290 289 289 289 289 290 288 288 288 288 288 289 289 290 290 290 291 290 290 290 292 293 293 293 293 293 293 293 293 293 294 293 294 293 293 293 293 295 296 295 295 295 295 294 293 293 292 293 293 292 292 291 292 292 293 293 294 294 296 296 297 296 295 295 294 293 293 293 293 292
284 279 289 288 289 291 291 291 293 293 293 292 292 291 290 290 290 290 290 289 289 289 289 289 288 288 289 289 289 289 289 289 289 289 288 288 288 290 290 291 291 291 291 292 292 292 292 293 293 293 293 294 294 294 294 295 296 296 295 295 295 294 294 293 292 292 292 291 291 291 291 291 292 292 292 292 292 292 294 294 294 293 293 293 292 292 292
283 283 287 289 291 291 292 291 290 290 291 291 292 291 291 290 290 290 290 290 289 289 288 288 288 287 287 287 286 287 287 288 288 287 286 286 287 287 286 287 288 289 290 290 291 291 292 292 293 293 294 294 294 295 295 295 295 295 295 294 294 294 294 294 293 292 292 289 290 290 290 289 289 290 290 291 290 289 289 290 293 293 292 292 292 292 292
286 288 289 289 290 290 290 291 292 292 291 291 290 291 290 290 288 288 288 288 287 288 288 287 286 285 283 284 285 286 285 285 286 286 286 286 286 286 287 288 287 287 288 289 289 290 291 292 292 293 293 294 294 294 295 295 295 294 294 294 294 294 294 294 293 293 292 292 292 291 290 290 289 289 288 289 290 290 290 290 291 292 292 292 292 292 292
281 282 285 289 283 282 286 289 291 291 292 291 290 290 289 289 287 287 286 285 285 284 284 285 285 285 284 284 285 285 284 285 286 286 285 285 285 287 287 288 286 287 288 288 289 290 291 292 292 292 292 293 294 294 295 295 295 294 294 294 293 293 294 294 294 293 292 292 292 291 291 290 290 290 288 289 289 289 289 289 288 289 289 290 291 292 291
282 287 289 290 289 288 289 289 291 291 291 290 289 288 288 288 288 287 287 286 286 286 284 284 286 284 286 284 284 285 286 286 287 287 287 288 289 290 289 288 288 288 287 288 289 289 290 291 292 292 292 292 292 293 294 295 294 294 294 293 293 293 293 292 292 293 293 292 292 291 291 290 291 289 290 290 289 288 289 289 288 288 288 288 288 289 291
288 290 289 291 290 287 289 290 290 290 290 289 288 288 288 288 287 287 287 287 286 284 284 285 285 285 284 284 285 285 285 286 288 288 288 287 288 289 289 287 287 288 289 288 288 288 288 289 290 290 292 292 292 292 292 293 294 293 293 292 292 292 292 292 292 292 294 293 292 291 291 291 291 290 289 289 290 290 289 289 289 289 288 288 288 288 289
286 289 290 290 290 290 290 289 289 289 290 289 288 287 287 287 286 287 286 285 285 286 285 285 284 283 284 282 283 284 284 283 284 286 286 287 286 287 288 288 288 288 287 286 286 287 287 288 288 290 291 292 292 292 292 293 293 293 292 291 291 291 291 292 292 292 292 293 292 292 291 291 290 291 290 289 288 289 290 290 289 289 288 289 289 289 289
290 290 290 290 289 288 288 288 287 287 287 289 288 287 289 290 288 287 286 285 284 284 285 283 284 283 282 284 283 282 283 283 284 284 284 285 285 286 286 286 287 287 287 286 286 286 286 286 286 286 287 288 289 291 292 292 292 292 291 291 289 289 290 290 291 291 290 291 292 292 292 291 291 290 290 290 290 288 288 289 290 290 289 289 288 288 288
291 291 290 288 287 286 287 287 286 286 286 287 287 286 287 288 289 286 283 283 283 282 284 283 283 282 282 281 282 282 283 284 283 282 282 283 284 283 282 283 285 286 285 285 286 285 285 285 285 285 285 287 288 289 291 291 291 291 291 290 289 288 287 288 289 289 289 288 289 291 291 291 291 290 290 290 290 290 289 288 287 287 287 288 288 288 288
290 288 287 286 285 287 285 286 287 286 287 287 287 286 285 286 286 286 285 284 283 282 281 281 282 282 283 282 281 282 282 282 284 282 283 282 282 281 281 281 281 282 283 283 283 283 283 283 284 284 285 286 286 287 289 289 289 289 289 290 289 288 288 288 288 288 288 289 289 290 291 291 291 290 290 290 290 290 289 289 288 287 287 287 287 288 288
287 287 288 287 287 286 287 287 287 287 285 285 286 285 286 286 284 284 283 283 282 282 283 282 281 281 281 281 280 280 280 281 282 283 282 282 281 279 280 279 280 281 282 282 283 282 283 283 283 284 285 285 285 285 287 289 289 289 289 289 288 288 288 287 287 288 288 288 288 289 289 288 289 290 289 289 289 290 289 288 287 287 287 287 288 289 288
286 287 287 286 287 288 287 286 285 285 285 285 286 284 285 286 285 282 282 283 282 284 283 282 281 281 281 281 281 281 282 282 282 282 281 280 279 278 279 279 280 282 282 283 283 282 282 282 282 283 285 285 285 285 287 287 287 288 289 290 288 287 287 287 288 289 288 288 288 286 288 289 290 289 289 289 288 287 286 286 286 286 287 287 287 287 287
285 286 286 287 287 287 286 285 285 285 285 284 285 284 283 283 283 282 282 282 282 283 282 282 282 281 281 281 280 280 281 280 280 280 280 279 278 278 278 280 282 282 282 282 282 281 282 282 282 283 285 284 284 285 286 287 287 287 288 288 288 286 285 285 285 287 287 287 287 287 288 288 289 288 287 287 287 287 286 286 286 286 286 287 287 287 287
285 285 286 286 286 285 284 284 285 284 284 284 285 285 284 284 283 283 282 282 282 281 280 281 282 282 282 280 279 279 279 279 280 279 278 278 278 277 272 275 281 281 281 281 281 281 281 281 283 285 284 283 283 284 285 285 286 287 286 286 287 287 286 285 285 285 284 285 286 286 286 287 287 287 287 287 287 286 286 286 286 286 286 286 287 287 287
285 284 284 283 284 284 283 283 285 283 283 284 285 285 283 284 283 283 282 282 281 280 281 281 281 280 280 279 279 277 275 275 279 279 279 278 274 271 269 274 278 280 281 281 281 281 282 283 284 284 283 283 283 284 284 284 284 284 285 285 286 285 285 285 285 284 284 284 285 286 286 286 286 287 287 287 286 285 285 285 285 285 286 286 287 287 286
286 286 286 286 286 285 285 284 284 285 283 284 283 283 283 283 283 282 281 281 281 281 281 282 281 280 280 277 274 272 273 278 280 279 277 274 271 268 273 278 279 280 281 281 281 280 281 282 283 283 283 283 283 284 284 284 284 284 284 286 287 286 286 285 284 284 284 285 284 284 284 285 286 287 286 286 286 286 286 286 285 285 286 287 287 286 285
288 287 288 288 288 288 288 287 285 284 284 284 284 283 283 282 282 282 281 282 283 283 281 281 280 278 276 274 274 274 274 277 275 273 273 270 269 269 275 280 282 282 283 284 283 283 283 283 282 282 283 284 284 284 285 284 284 283 284 286 287 287 285 284 285 285 285 285 284 284 284 284 284 284 284 285 285 286 286 286 286 286 286 286 286 285 285
288 287 286 286 286 287 287 287 287 286 286 286 286 284 283 283 282 282 282 282 281 282 281 280 279 278 276 275 275 273 274 275 271 269 268 268 268 271 277 281 281 282 282 284 284 283 282 282 281 281 284 284 285 286 285 284 284 283 285 285 285 285 285 284 284 284 283 284 284 283 283 283 283 283 284 285 285 286 285 286 286 286 286 286 286 286 285
288 289 287 287 286 285 285 286 286 286 286 285 285 283 283 282 284 284 283 282 283 282 281 281 280 280 280 279 277 276 274 274 273 272 272 270 272 278 280 281 281 282 281 282 283 281 282 283 281 281 284 284 285 286 286 282 284 283 283 284 285 286 286 286 286 284 284 284 284 283 281 282 283 284 283 285 285 285 285 286 286 286 286 286 286 286 285
286 288 288 287 286 286 286 286 286 286 285 284 283 283 285 285 283 284 284 284 283 283 281 282 283 282 281 280 278 277 277 275 272 272 272 272 275 280 280 279 281 280 281 282 281 281 283 283 281 282 284 284 284 285 284 282 282 283 283 284 286 286 285 286 286 285 283 283 283 283 283 284 285 284 284 284 285 285 285 285 285 286 286 286 286 286 286
285 286 286 287 286 285 284 284 284 284 286 287 284 282 283 283 284 284 284 284 283 283 282 281 280 280 280 280 281 280 280 280 277 275 274 275 277 279 281 282 283 284 285 283 282 283 284 282 282 283 284 283 284 285 284 282 282 284 283 284 285 285 285 285 285 284 284 284 284 283 283 284 284 285 284 283 284 284 284 285 286 286 286 286 286 287 286
285 286 286 286 286 285 285 285 285 285 285 286 285 285 284 284 284 284 283 283 282 282 282 281 281 281 280 280 280 281 282 281 280 279 279 278 278 279 281 283 283 283 283 282 283 283 282 282 282 283 283 283 283 284 284 283 283 283 284 283 283 284 284 284 284 284 284 284 284 283 285 284 284 284 284 284 284 285 285 285 285 285 286 286 286 287 286
286 285 285 286 286 285 286 285 285 285 286 285 285 286 285 285 284 284 283 284 283 282 282 282 282 281 281 282 282 283 282 281 281 281 280 280 281 281 280 283 283 282 283 283 282 282 282 282 282 284 284 283 282 283 284 283 283 283 283 283 283 284 285 285 284 284 284 284 284 284 284 284 284 285 284 285 285 285 285 286 286 286 286 286 286 286 286
285 285 285 285 285 285 285 285 284 284 284 284 284 285 285 285 286 287 285 283 283 282 282 282 282 284 283 282 282 282 282 281 281 281 281 282 283 281 281 282 283 282 282 283 282 282 282 282 282 282 283 282 282 283 283 283 284 283 283 283 284 284 284 284 283 283 283 283 284 284 284 284 284 284 284 285 285 285 285 285 285 285 285 286 287 287 286
284 285 285 285 285 284 285 285 286 286 285 283 283 284 285 285 285 284 284 283 283 283 283 283 283 282 283 282 282 282 283 282 282 282 281 282 283 283 284 284 282 283 282 282 282 282 281 281 281 282 282 283 283 283 282 283 284 283 283 284 283 283 282 282 283 283 283 283 284 284 284 284 284 285 285 285 285 285 285 286 286 287 286 286 286 286 286
284 285 286 285 285 285 285 285 284 284 286 285 283 283 284 285 285 285 285 284 284 283 284 283 283 283 283 283 283 282 283 283 283 282 284 284 283 283 284 284 284 284 283 282 282 282 282 282 281 282 282 283 284 282 283 283 283 284 283 283 283 283 283 282 281 284 285 284 284 284 284 283 284 285 286 286 286 286 285 285 286 287 287 286 286 286 286
285 285 285 286 285 285 285 284 286 287 287 285 283 283 284 284 284 284 285 285 285 284 284 284 284 284 284 283 284 285 285 284 285 284 284 287 285 283 282 283 284 283 283 283 281 282 282 282 282 282 283 283 283 282 282 283 283 284 284 284 283 282 282 282 284 284 284 285 284 284 284 284 285 286 286 286 285 286 286 286 286 286 287 287 287 286 286
284 284 284 283 285 286 286 287 287 286 285 285 285 285 284 283 284 284 285 286 286 285 286 285 285 285 285 285 284 284 283 282 283 284 283 282 286 288 282 282 281 282 282 283 283 283 283 283 283 283 283 283 282 281 282 282 282 283 283 283 283 283 284 283 283 283 284 284 285 284 285 285 285 285 286 286 286 286 286 285 285 286 286 287 287 287 286
284 284 285 286 286 285 284 283 284 285 285 285 286 286 285 283 283 283 283 283 284 285 284 284 285 285 285 286 286 285 286 287 286 284 284 283 283 283 284 284 282 282 282 282 282 282 282 282 282 283 283 283 282 281 282 283 284 283 283 283 283 283 283 283 283 284 283 283 283 284 284 285 285 285 284 285 285 285 285 285 286 286 286 286 286 286 285
285 285 285 285 285 283 283 284 285 285 286 287 287 286 285 283 283 284 284 284 284 284 283 283 283 283 283 284 285 286 287 287 286 287 285 284 283 283 282 282 282 282 282 282 282 281 282 282 282 282 283 283 282 282 283 283 283 283 283 283 283 283 283 282 283 283 283 283 283 284 284 285 285 285 285 285 285 285 285 285 286 286 286 286 286 286 287
286 286 285 284 284 284 285 285 285 284 286 285 285 284 283 284 283 284 284 283 284 285 285 285 285 285 285 284 285 284 284 284 285 285 284 284 284 284 283 283 283 282 281 282 282 282 281 281 281 282 282 281 282 282 282 282 282 282 282 282 283 282 282 282 282 282 282 282 283 282 283 283 284 284 284 284 284 284 284 285 285 285 286 286 286 286 286
284 284 284 283 283 284 284 284 284 286 286 284 284 283 283 284 285 285 283 283 283 282 283 284 284 283 281 282 283 283 284 284 284 284 283 283 283 283 282 282 282 282 282 282 283 282 281 281 281 281 280 281 281 281 281 282 282 281 281 281 281 280 280 281 281 281 282 282 282 282 282 283 283 283 283 283 284 284 284 284 285 285 285 285 286 286 286
284 285 285 284 285 286 286 287 287 286 285 284 284 283 285 285 287 284 283 283 283 284 284 285 284 283 283 284 282 282 282 282 282 283 283 283 283 282 282 282 282 282 282 282 282 281 280 281 281 280 280 281 281 281 281 281 281 281 280 280 281 280 280 280 280 281 281 281 281 281 282 282 282 283 282 282 283 283 283 284 284 284 285 286 286 286 286
287 286 285 284 283 283 283 283 284 284 284 284 284 284 285 285 284 283 282 283 284 284 284 284 285 285 282 283 283 282 282 282 282 282 283 283 282 282 282 282 283 283 283 282 282 282 281 281 281 281 281 280 280 279 281 281 280 280 281 280 280 280 281 280 280 280 280 280 280 281 281 281 281 281 280 281 281 281 282 282 283 283 284 285 286 285 285
Wind_Speed
8 6 4 7 11 11 9 10 9 11 8 3 4 1 1 2 7 9 8 11 8 7 6 7 7 7 7 8 9 8 7 5 6 7 8 8 9 9 9 9 9 10 10 9 9 10 9 10 11 11 10 10 9 8 8 9 10 11 11 10 10 10 9 9 9 10 10 9 5 4 5 7 7 7 7 8 9 8 6 5 4 5 3 3 7 6 4
10 9 6 4 14 7 9 11 10 9 10 10 8 6 1 3 2 5 15 12 10 5 5 7 7 7 7 8 7 7 8 7 7 9 8 8 8 8 9 9 9 8 9 9 9 9 9 9 10 10 10 10 10 10 10 9 10 11 10 10 10 10 11 10 10 10 9 9 8 5 5 6 7 7 8 9 9 8 8 7 7 6 4 3 5 8 7
6 7 6 7 8 10 14 11 11 10 7 9 9 5 6 11 12 11 14 15 8 4 7 8 7 7 6 7 8 8 7 7 8 8 8 8 8 8 8 8 8 8 8 8 8 8 9 9 10 9 9 9 9 10 10 10 10 10 9 9 10 10 11 11 11 11 10 9 9 7 6 6 7 8 9 8 7 8 7 7 7 5 4 6 5 5 7
3 1 6 6 9 13 13 11 12 11 7 6 5 4 4 1 10 12 13 9 5 5 7 8 7 8 8 8 8 7 7 8 9 8 8 8 8 8 7 7 8 8 8 8 8 9 9 9 9 9 9 9 9 10 10 11 10 9 10 10 9 11 11 11 11 12 11 11 9 9 6 6 8 9 8 7 8 8 7 7 6 6 5 6 5 5 5
1 3 1 3 2 3 6 6 5 5 5 5 4 6 8 7 4 13 11 6 6 8 7 8 7 8 8 8 8 7 8 8 8 8 7 6 7 7 7 7 8 8 8 9 9 9 9 9 9 9 8 9 10 9 10 9 9 10 10 10 10 10 11 11 12 11 11 11 10 10 8 7 6 8 8 7 7 7 7 6 6 7 5 6 5 4 6
5 4 2 1 4 2 2 2 4 4 2 3 8 4 5 7 5 2 5 9 9 7 6 8 8 8 7 7 7 7 6 6 7 7 6 7 6 6 7 7 7 7 8 8 8 8 8 9 9 8 8 8 8 8 8 8 9 9 10 11 11 11 11 12 12 11 12 11 10 9 10 6 5 5 6 6 4 3 4 5 6 6 5 6 5 4 4
6 1 2 4 2 2 2 2 4 7 9 11 14 10 10 8 8 13 12 9 8 7 8 8 9 10 9 9 9 8 9 7 6 6 7 7 7 7 6 7 7 7 8 8 9 9 9 9 9 9 9 9 8 8 8 9 9 9 9 10 11 12 13 12 12 11 12 11 9 10 9 9 5 1 2 5 5 5 5 5 5 5 6 7 5 5 6
4 2 2 3 1 1 3 2 2 1 2 2 8 11 9 7 5 7 11 8 10 10 10 8 8 10 10 10 9 8 8 7 5 6 6 5 5 6 5 6 7 7 8 8 7 7 7 8 9 9 9 9 8 7 7 9 9 9 9 10 11 12 13 13 12 11 11 11 11 10 11 10 11 10 9 7 6 5 7 7 7 7 6 7 6 7 6
5 3 4 4 3 1 1 1 1 0 1 2 2 5 3 3 1 4 8 10 9 10 9 8 7 7 7 8 8 6 6 5 5 5 5 4 4 4 5 5 6 6 6 6 7 6 7 7 9 9 9 9 7 8 10 10 9 10 10 12 12 12 12 12 13 12 11 11 11 11 10 11 11 11 10 8 7 5 10 9 10 10 7 6 6 7 9
3 6 5 3 1 4 6 2 1 0 0 3 2 4 3 3 5 7 8 8 10 9 9 7 7 5 0 6 4 5 6 5 5 4 4 3 4 5 5 6 6 7 7 7 7 7 8 9 9 8 8 8 8 9 10 10 10 10 11 12 11 12 12 12 11 11 12 11 11 10 10 11 10 9 9 8 8 7 9 10 11 9 8 8 9 8 10
3 3 5 3 4 2 0 5 2 0 1 2 1 4 1 3 6 6 8 10 8 8 9 6 5 2 2 3 2 3 4 5 5 4 5 5 5 5 5 6 7 7 7 6 7 8 8 10 10 9 9 8 9 10 10 10 10 11 12 10 10 11 10 10 11 11 11 12 12 10 10 10 10 10 9 8 6 7 8 10 10 9 11 10 10 9 10
1 4 4 2 0 1 1 1 0 1 1 1 1 2 3 5 8 7 7 9 9 7 6 6 1 2 4 4 3 2 5 4 2 3 4 5 6 7 7 7 5 5 6 8 9 9 10 10 9 9 8 9 10 10 10 10 12 12 11 9 9 9 10 10 10 11 11 12 12 11 10 9 10 10 8 8 7 10 8 9 10 9 10 11 12 9 10
5 6 2 3 2 1 0 1 1 2 1 0 3 4 3 5 8 7 6 8 7 8 6 2 3 4 4 7 6 4 4 5 4 3 3 3 3 6 7 8 7 7 7 7 8 9 9 9 9 9 8 9 10 10 10 11 12 10 9 9 9 9 9 11 12 12 11 11 12 12 10 8 7 9 9 8 6 9 8 8 10 9 11 11 12 10 10
3 1 5 2 1 1 1 0 2 2 3 3 5 2 3 9 8 6 7 9 7 6 6 7 8 7 7 8 6 6 5 5 4 4 5 6 7 6 6 8 8 7 8 9 11 11 10 10 9 9 8 10 10 10 12 13 11 8 9 10 10 10 11 11 11 11 12 11 11 10 10 9 8 9 7 8 7 7 8 9 11 10 9 11 11 10 10
2 2 4 1 1 1 1 1 1 1 1 1 3 7 6 6 9 9 7 7 8 10 9 9 10 9 8 7 7 6 5 6 6 6 6 7 7 7 8 9 8 7 7 8 9 9 9 9 9 9 10 11 10 10 12 11 9 8 9 9 10 10 11 12 11 11 11 12 11 9 9 9 9 9 7 8 7 9 10 9 10 10 10 10 10 9 9
5 2 3 3 0 1 1 2 3 1 1 5 6 7 7 6 6 9 8 7 7 10 12 10 9 8 9 7 7 7 6 5 5 5 5 5 6 6 6 6 7 7 7 7 7 8 9 9 8 8 9 10 11 12 12 9 9 10 10 9 10 11 11 11 11 11 10 10 10 10 11 9 9 9 9 8 8 8 7 8 9 10 9 9 9 10 9
1 2 2 2 4 2 3 2 5 7 8 7 7 8 7 9 5 5 9 9 8 10 12 10 10 8 6 7 5 7 5 5 4 4 4 5 5 5 5 5 6 5 6 7 7 8 8 9 8 8 7 9 11 12 9 8 9 9 9 10 11 11 11 11 11 9 10 10 9 10 10 10 10 10 10 9 9 8 8 8 9 9 7 8 9 8 8
8 8 5 5 7 8 8 8 6 9 8 6 7 10 9 6 7 5 9 9 9 9 9 11 7 7 7 8 7 6 5 4 2 3 4 5 4 4 5 6 7 6 6 7 8 9 9 9 8 7 7 7 9 7 7 8 8 7 8 10 11 10 10 10 10 10 10 10 10 11 11 10 9 9 9 9 8 7 7 7 7 8 7 7 7 7 7
1 4 2 6 7 9 9 11 9 8 7 6 6 8 9 8 8 9 8 9 8 7 7 9 10 8 6 6 5 3 3 3 3 3 3 3 3 3 4 4 4 5 5 6 7 7 8 9 8 7 6 7 6 5 6 6 7 7 9 9 10 10 10 9 9 10 11 9 9 10 11 9 9 9 8 9 9 8 7 6 6 6 6 6 6 6 6
3 6 5 7 8 8 7 6 9 9 9 9 7 8 9 9 8 8 8 8 8 7 8 8 8 6 4 5 4 3 3 3 3 3 3 3 4 4 2 3 4 4 5 4 6 6 7 7 7 7 7 7 6 6 5 5 5 6 8 8 8 8 9 8 8 8 9 10 10 8 9 10 10 9 8 7 8 8 7 6 5 5 6 7 6 6 5
8 10 7 8 9 10 9 8 7 7 8 10 11 11 11 10 10 8 7 6 6 7 8 7 6 6 4 4 4 4 3 3 3 3 3 3 2 2 4 4 3 3 4 5 4 5 5 6 6 7 8 7 6 5 5 4 5 7 7 8 8 8 8 8 8 7 7 8 8 8 8 8 9 9 8 7 7 7 7 5 5 5 5 6 5 5 5
7 5 8 10 8 6 6 8 7 9 9 11 12 10 10 9 10 8 10 7 5 5 5 6 5 6 4 4 4 4 3 2 2 2 3 3 3 3 2 1 3 4 3 3 4 5 5 6 5 6 6 7 6 5 5 5 6 7 7 7 7 7 7 7 7 7 7 7 7 7 8 7 7 8 11 14 10 7 7 10 13 11 7 5 3 3 5
8 7 10 3 8 10 6 8 8 8 8 11 12 10 9 7 7 7 10 9 6 5 3 3 7 5 5 3 3 4 3 2 0 0 0 3 4 4 4 5 5 5 5 4 5 5 6 5 5 5 6 5 6 7 5 5 6 6 6 6 6 6 6 6 6 5 5 6 6 6 6 6 6 6 6 9 14 14 12 12 13 13 12 10 9 8 4
10 9 7 7 8 8 9 8 8 8 7 9 10 7 7 7 7 7 7 6 8 4 4 3 2 5 4 2 4 4 3 4 4 4 3 3 3 2 3 4 5 6 6 6 5 4 4 4 5 4 5 5 5 6 6 6 4 5 5 5 5 5 5 5 5 5 4 4 5 6 6 6 6 5 5 6 7 11 13 14 14 14 14 12 10 8 8
10 6 7 8 11 11 9 8 6 6 5 8 10 8 7 7 5 5 7 5 4 7 5 4 3 2 5 2 3 4 3 2 3 3 3 3 4 4 4 5 5 4 4 3 3 4 5 6 6 5 5 6 6 6 6 5 4 5 5 5 5 5 5 5 5 5 5 4 4 4 5 5 5 5 5 6 6 6 7 9 12 14 15 14 12 11 11
12 11 11 10 10 10 7 8 7 5 5 6 7 4 5 6 6 6 6 5 4 4 5 4 4 1 2 4 3 2 4 4 2 3 4 4 4 5 6 4 4 3 3 3 4 5 5 5 5 5 6 7 7 6 5 5 4 4 4 4 4 4 4 4 4 4 4 4 4 3 4 4 4 5 3 4 4 4 5 6 6 8 11 14 12 10 11
12 12 15 14 11 8 5 7 7 5 5 5 8 7 6 6 7 6 4 4 4 3 4 4 4 3 3 3 3 2 2 0 1 4 3 4 4 3 3 3 3 3 4 5 6 6 5 5 6 5 5 6 6 6 5 4 3 4 4 3 3 4 6 5 4 4 3 4 3 3 3 4 4 4 4 3 3 4 3 4 5 5 4 6 9 11 8
11 5 2 11 13 10 5 5 8 6 7 8 8 7 6 6 7 7 6 5 5 4 4 3 4 4 4 1 3 2 2 3 2 2 4 3 3 3 3 3 3 3 4 4 4 5 5 5 5 5 6 6 6 6 5 4 4 4 4 4 4 5 4 5 5 5 4 4 2 3 4 3 3 3 3 3 3 3 3 4 4 4 3 4 4 5 10
6 7 8 7 7 7 7 8 8 8 7 5 6 5 6 8 5 6 4 4 2 3 3 3 3 2 3 1 3 3 2 2 3 3 2 1 3 3 3 3 2 2 4 4 4 5 6 6 6 6 6 6 6 6 5 4 4 4 4 4 4 4 5 4 3 4 4 4 3 1 2 3 3 3 3 3 3 3 3 4 4 3 3 3 3 4 5
7 7 9 8 9 9 11 8 7 7 7 5 6 4 5 8 6 3 3 1 1 4 2 1 3 3 2 3 2 4 4 4 3 2 1 2 3 3 4 3 2 5 6 6 6 6 6 5 5 5 6 6 7 6 5 4 4 3 3 4 3 4 3 2 2 3 4 4 4 4 2 2 3 3 3 3 3 2 3 3 3 2 3 3 3 3 3
8 8 9 9 10 8 9 7 6 6 5 4 5 6 4 4 5 4 3 1 0 1 1 2 2 3 1 2 2 1 1 2 2 1 1 2 2 2 3 4 4 3 4 4 5 4 4 5 4 4 6 5 5 5 4 5 5 3 3 4 3 4 5 4 4 3 4 4 4 4 3 3 2 2 3 3 3 3 3 2 2 2 1 2 3 2 2
11 9 10 8 8 8 6 5 6 6 5 5 6 5 5 6 5 5 4 3 4 4 2 2 2 3 2 2 3 3 3 2 1 1 2 2 2 2 1 1 1 1 3 4 4 3 3 3 4 5 5 5 5 4 4 5 5 6 5 3 3 3 3 3 3 3 3 3 4 3 2 3 2 2 2 2 2 2 2 1 1 0 1 2 3 3 3
11 12 8 7 7 7 6 4 8 5 5 6 6 5 4 2 3 3 4 3 3 3 3 4 3 3 4 4 4 4 2 1 0 1 1 1 2 2 2 2 2 3 3 3 3 3 2 2 4 4 5 5 5 4 4 4 4 4 2 2 2 2 3 3 2 1 2 2 2 2 2 2 2 1 1 0 1 2 2 2 2 2 2 3 3 3 3
9 9 11 9 10 10 10 7 5 6 3 1 2 3 3 3 3 2 2 2 2 3 4 4 4 4 4 5 4 4 2 1 0 1 1 2 2 3 4 3 3 3 3 3 2 2 2 2 2 3 4 4 5 4 4 4 4 3 2 1 1 3 5 4 3 2 1 1 1 2 2 2 2 1 1 1 2 2 2 2 2 2 2 3 3 3 4
8 7 8 9 7 8 8 9 6 5 5 4 1 1 2 2 2 2 3 4 5 5 3 4 4 4 4 4 4 3 2 4 4 3 2 2 2 3 5 4 4 5 6 5 3 2 2 3 3 3 4 4 4 4 4 5 4 4 2 1 1 2 3 4 5 4 1 1 1 2 1 1 2 2 3 3 3 3 3 3 3 3 2 3 2 3 3
6 5 4 4 4 5 6 7 7 7 7 6 6 5 4 4 4 4 5 4 2 4 5 5 5 4 4 4 4 3 4 5 5 4 4 3 3 3 3 4 4 4 5 6 3 2 3 3 4 5 4 5 5 5 5 5 3 3 1 2 3 4 5 5 5 4 3 2 3 2 2 2 2 3 4 4 3 3 3 3 2 2 2 2 0 1 1
6 9 7 6 4 4 5 4 5 6 6 5 5 4 3 4 6 4 3 4 4 5 6 6 5 4 6 6 4 2 3 4 4 4 4 2 2 2 3 3 3 2 2 3 3 2 3 3 7 7 5 5 5 5 6 8 4 2 2 3 3 4 5 6 6 4 2 1 1 3 2 2 2 2 3 4 3 3 3 4 3 2 1 2 0 1 1
6 8 9 7 6 6 6 5 4 5 4 2 2 4 6 6 5 5 6 5 5 5 5 6 6 4 3 2 1 3 4 4 4 4 3 3 1 2 3 2 4 1 2 3 2 2 4 4 7 5 4 5 4 4 5 7 5 3 3 2 1 3 5 5 6 5 4 2 1 1 2 1 1 1 0 3 3 4 4 3 2 2 0 2 2 2 2
3 2 3 5 5 5 4 3 3 4 6 7 6 3 3 4 5 5 5 5 4 5 5 4 3 4 3 3 3 4 5 6 4 2 2 3 2 1 5 5 6 5 6 3 2 4 5 4 3 3 3 3 3 3 4 6 6 3 3 2 3 4 4 4 4 4 4 2 1 2 1 1 1 0 1 2 2 2 3 3 2 1 2 3 4 4 3
7 8 7 6 6 5 5 5 5 6 5 4 8 7 5 6 5 5 4 4 4 5 5 5 5 4 4 4 4 5 6 4 3 3 4 2 1 2 5 7 5 5 6 6 5 4 4 4 2 2 2 2 3 3 3 5 4 4 3 4 4 4 3 2 2 5 6 6 6 5 5 5 4 3 2 2 2 2 3 3 3 3 3 4 5 4 4
8 7 6 8 7 6 7 7 6 6 6 6 5 6 6 7 6 6 6 6 5 5 5 6 6 4 4 6 7 6 3 1 2 3 2 2 1 2 1 5 4 2 2 3 3 3 2 3 1 2 2 2 3 3 3 4 5 4 3 3 3 2 2 4 5 4 5 5 5 5 5 5 5 4 4 3 2 2 2 2 3 4 4 5 5 5 5
7 7 8 7 7 7 6 5 5 4 4 4 4 5 6 7 9 8 7 5 6 5 6 5 7 6 4 3 2 3 4 4 3 3 4 5 5 3 2 5 3 2 4 4 3 3 2 2 2 3 2 1 2 3 3 4 4 3 2 2 1 1 3 4 4 3 2 3 3 4 5 5 5 4 4 3 4 4 3 2 2 3 4 4 5 5 4
8 9 9 9 7 6 7 7 8 8 6 4 4 5 6 5 4 4 5 5 6 6 5 5 5 4 2 2 3 3 5 4 2 3 3 5 5 5 5 4 2 4 5 3 1 1 2 2 2 3 1 1 1 2 3 5 4 3 1 1 1 2 3 4 4 3 3 3 4 4 4 4 4 4 4 2 3 3 3 3 4 4 4 4 5 4 3
8 8 8 8 8 8 7 6 5 4 5 4 3 4 5 5 5 6 6 6 5 6 7 6 5 5 5 4 3 4 6 4 4 1 0 4 3 4 7 7 6 5 4 2 2 2 2 2 2 2 3 3 3 4 3 3 3 3 1 1 2 3 3 4 4 5 5 3 3 4 3 3 3 3 2 1 2 2 2 3 5 5 4 4 4 4 4
8 8 8 8 8 7 6 6 8 9 7 4 4 4 4 5 4 4 6 6 7 7 5 6 6 6 6 5 6 7 6 5 5 5 3 1 0 3 1 4 5 4 4 3 1 2 2 3 3 3 4 3 4 4 2 2 2 2 2 0 2 3 4 3 4 5 5 5 4 3 3 4 4 4 4 4 3 4 4 4 4 4 4 4 4 4 4
7 6 6 8 8 8 9 10 7 5 6 6 4 2 2 3 4 5 5 6 6 6 8 7 7 7 7 6 5 3 2 3 4 5 5 3 2 1 0 1 3 2 0 2 0 1 1 2 3 4 4 5 5 3 2 2 1 1 1 1 1 2 3 3 3 4 4 5 5 4 4 4 5 5 5 5 4 3 4 5 4 4 4 4 4 4 4
7 6 7 8 8 6 4 4 5 6 5 5 6 5 4 3 3 4 4 3 3 4 4 5 5 5 5 6 7 5 3 1 1 3 5 5 4 2 1 1 4 4 4 2 2 2 4 4 4 2 2 3 4 2 2 2 1 0 1 2 2 3 3 3 3 3 4 4 4 4 4 4 4 5 4 4 5 4 3 3 3 4 4 4 4 4 5
8 8 8 6 7 6 5 5 6 6 7 9 7 7 5 3 2 2 1 2 1 2 3 3 3 3 3 4 4 4 5 6 3 3 3 5 1 1 2 2 2 5 4 4 3 3 6 6 5 4 3 2 0 0 0 0 1 1 2 3 3 4 4 4 4 4 4 4 4 4 4 5 5 6 5 5 5 3 3 4 5 5 5 4 4 4 5
8 9 7 5 6 7 7 7 6 6 7 6 5 4 4 4 3 3 3 3 2 2 2 2 2 2 1 2 4 4 3 2 4 3 3 4 4 4 3 3 4 5 4 4 3 3 5 5 5 5 5 3 2 1 1 1 2 3 3 4 4 4 4 4 4 4 4 4 3 3 3 3 4 4 5 5 4 3 4 4 4 4 4 4 3 4 4
4 7 7 7 6 7 7 7 7 8 7 5 6 5 5 5 6 4 4 4 4 3 2 0 1 1 1 1 1 2 3 3 1 1 2 3 3 3 4 4 3 4 5 5 3 3 4 4 5 4 4 3 3 3 3 3 2 2 3 4 4 3 4 4 3 3 3 3 3 3 3 4 4 4 4 4 4 4 3 3 4 5 6 5 6 3 2
6 7 7 7 8 8 8 9 10 8 7 7 5 6 7 7 7 6 6 5 4 3 3 0 0 1 0 0 1 1 2 2 2 3 4 4 4 5 4 4 4 5 5 5 4 3 2 3 2 3 3 4 4 4 4 4 4 4 4 3 4 4 5 5 5 4 5 4 3 3 4 4 4 5 5 5 5 6 5 5 5 4 3 3 2 1 0
9 8 7 5 6 5 4 1 1 4 4 6 6 7 7 7 6 6 3 4 6 7 6 4 1 1 1 1 1 2 2 3 4 4 4 4 5 5 4 5 5 5 5 5 4 3 3 2 3 3 4 3 3 3 3 4 5 3 4 4 4 4 5 5 4 5 3 5 5 5 5 5 5 5 5 5 5 6 6 6 5 5 4 3 2 3 3
Wind_Direction
51 33 56 89 79 73 80 68 49 35 16 42 97 169 244 123 149 192 164 144 119 123 109 105 89 91 92 81 75 67 62 48 51 51 43 37 35 27 25 21 12 6 2 352 358 357 351 348 346 344 343 343 344 344 346 346 347 348 340 341 341 342 337 332 326 325 321 312 280 236 220 232 233 223 210 203 207 200 186 175 153 159 149 185 159 149 141
46 26 33 47 96 94 64 49 46 39 46 54 67 80 54 107 101 131 125 112 88 86 102 98 93 90 88 82 77 72 61 50 49 50 41 37 35 27 24 18 7 1 353 353 354 349 346 345 344 345 345 346 347 348 350 351 352 346 343 347 345 347 345 335 328 317 318 323 305 258 228 226 232 224 216 208 196 183 183 172 165 187 164 148 183 158 150
33 27 49 59 77 91 76 44 43 39 32 46 34 66 62 68 57 79 103 105 103 73 93 92 84 81 83 76 70 67 62 54 49 44 38 36 33 24 19 10 2 356 349 347 344 348 350 348 349 348 347 343 345 351 352 354 354 347 349 344 351 349 348 342 331 331 328 327 322 292 247 231 230 227 222 211 195 188 179 165 157 154 166 153 178 167 157
55 14 76 83 85 83 77 46 24 23 9 29 7 27 336 288 140 123 106 110 138 134 104 89 77 73 66 68 66 62 55 51 50 40 33 33 30 23 11 4 355 346 345 345 347 350 349 346 346 351 350 348 352 354 351 355 350 347 358 1 357 358 353 345 342 336 334 329 326 312 265 233 226 226 222 210 199 190 172 153 151 143 167 165 158 152 138
128 215 332 338 343 44 34 10 340 4 70 98 83 29 22 19 133 134 157 165 110 128 125 103 82 81 77 66 54 55 54 55 53 46 36 30 28 20 6 358 352 348 349 347 342 348 353 351 349 349 351 353 355 349 351 349 347 356 357 360 358 1 360 356 347 340 333 335 331 325 295 248 224 222 216 209 197 181 176 165 145 151 157 139 142 140 140
163 210 295 335 71 134 201 324 309 240 194 136 77 40 21 15 38 67 77 112 122 119 119 113 118 97 80 76 66 54 53 56 51 48 40 29 27 16 4 353 353 346 351 345 346 348 347 345 348 343 355 356 344 346 347 345 358 360 1 4 5 1 1 2 356 347 347 343 337 336 327 286 228 219 211 199 157 142 136 126 132 124 120 116 111 116 112
153 161 20 66 174 230 311 344 63 74 97 94 90 69 52 54 86 103 96 99 100 106 103 108 106 103 90 74 67 55 48 50 52 50 41 32 23 17 357 355 350 351 348 347 350 349 351 350 346 349 353 351 341 352 356 1 3 2 3 9 11 5 2 359 359 355 349 349 344 353 352 357 346 29 73 71 78 74 84 89 100 116 129 120 105 96 90
82 68 25 145 232 301 94 125 84 156 96 88 86 68 50 44 55 100 109 108 108 108 108 108 111 105 99 82 63 55 53 47 51 54 46 27 17 7 352 349 348 350 350 354 351 342 342 354 354 357 351 341 347 352 3 15 5 2 1 15 14 8 5 1 1 357 352 353 355 5 12 15 28 23 19 30 53 71 83 69 58 58 42 68 84 85 78
129 133 87 105 147 161 93 291 247 242 129 64 89 114 42 57 69 92 117 120 117 116 117 121 125 129 113 81 61 53 56 47 45 52 45 32 21 10 357 353 346 349 352 359 355 354 1 6 5 2 350 345 345 359 16 12 10 5 8 14 11 9 7 1 2 359 0 4 6 10 19 28 31 32 27 18 31 42 75 66 62 51 27 40 50 67 68
113 130 107 104 202 222 202 202 337 71 45 137 197 108 90 77 96 134 125 124 126 126 132 141 155 168 72 52 40 34 47 33 31 26 29 22 24 23 8 2 4 2 1 0 6 9 7 12 9 358 357 351 356 11 15 11 10 9 16 12 5 8 6 360 0 2 4 9 14 15 26 33 30 37 44 32 25 41 69 75 66 60 59 40 40 47 63
85 72 124 175 172 245 102 171 236 342 291 170 156 67 120 156 147 145 140 132 139 142 150 150 162 215 114 97 88 61 45 29 21 23 21 15 15 22 21 17 5 355 352 357 4 9 13 15 1 360 1 1 12 16 15 13 14 16 12 4 2 4 5 4 5 6 6 13 17 19 24 35 43 41 37 47 39 47 63 74 70 67 65 51 40 32 49
65 135 92 178 197 211 187 151 256 298 323 79 55 96 240 154 152 144 145 142 145 144 139 147 112 39 128 159 134 102 75 59 18 37 30 18 11 20 20 22 11 357 1 10 16 15 14 11 3 3 1 15 19 17 14 16 22 17 3 355 353 4 10 13 13 12 11 15 18 20 22 29 48 51 44 42 40 66 49 66 74 68 71 67 57 36 37
84 81 60 30 352 338 290 111 287 306 217 324 124 203 193 152 139 144 139 137 136 137 141 140 90 22 62 101 115 101 88 79 47 37 48 44 33 33 28 21 13 21 16 20 20 18 12 7 8 5 5 19 22 17 14 20 22 8 357 358 3 8 15 21 20 16 14 15 18 21 19 18 29 62 59 42 20 68 64 57 73 68 71 71 66 50 45
106 143 103 181 213 250 133 206 248 252 119 126 223 169 95 111 101 103 122 124 129 127 99 104 106 110 102 104 100 95 84 86 72 60 51 49 42 36 39 34 29 22 22 22 21 18 13 10 11 8 9 23 21 18 17 17 7 1 7 12 12 12 20 24 23 21 18 16 17 21 21 20 28 40 37 63 49 50 66 66 61 55 61 67 66 58 49
65 44 79 43 222 233 81 160 56 356 164 227 112 113 72 96 111 105 92 108 118 112 104 107 114 112 106 104 103 96 83 72 62 53 51 48 44 33 25 23 17 24 30 24 24 21 11 12 12 11 14 23 21 18 19 1 355 6 15 20 20 20 23 24 26 23 21 23 23 16 20 24 30 41 41 41 42 53 55 57 68 67 52 57 59 56 54
140 122 150 202 293 76 187 209 171 169 63 121 118 111 103 78 99 109 107 97 115 119 121 125 118 113 112 100 96 87 75 73 63 57 53 47 41 32 24 23 10 13 23 19 21 21 19 14 11 13 19 23 21 21 8 345 1 13 18 23 27 30 26 24 22 24 19 22 28 25 19 19 30 38 36 37 44 45 55 61 56 57 54 56 59 52 46
133 184 179 253 232 171 100 135 103 102 99 106 113 104 111 118 91 108 111 121 123 126 126 122 121 112 102 104 101 99 99 90 74 61 39 34 30 27 23 12 8 20 20 13 10 13 12 11 8 13 17 22 21 16 353 352 5 13 19 26 32 29 29 27 24 17 27 28 22 28 24 23 28 24 31 31 45 35 47 55 64 65 50 60 64 59 49
100 62 65 107 98 99 87 68 78 97 96 81 103 111 105 90 112 124 124 125 122 118 118 116 104 108 118 109 106 105 100 96 54 34 28 21 14 20 22 12 5 11 12 16 15 9 1 1 360 6 14 26 23 354 347 4 3 6 21 32 33 31 30 31 26 21 24 27 27 29 30 29 34 31 30 24 31 29 35 46 51 63 58 54 61 64 66
84 67 21 92 102 100 98 97 81 76 76 87 93 95 98 103 103 101 100 111 112 111 110 113 118 118 121 112 108 104 102 75 61 58 47 25 25 27 17 352 1 10 13 11 7 5 4 351 352 352 6 14 15 3 6 359 8 18 29 29 33 33 32 30 32 31 32 26 27 29 29 30 34 33 32 33 31 25 24 29 42 49 47 50 55 56 62
92 129 121 100 89 83 82 90 106 98 92 85 77 91 97 101 100 101 107 104 100 108 107 112 116 121 117 113 114 106 103 105 93 78 59 42 34 11 11 10 23 28 22 16 5 6 1 346 347 355 4 6 0 4 2 3 6 25 34 34 31 24 28 33 31 31 35 28 31 39 36 36 33 28 27 30 41 35 21 6 13 48 59 51 44 40 38
94 100 91 99 83 75 76 81 76 92 106 103 99 101 102 104 101 98 84 87 115 112 118 114 116 111 113 121 125 111 100 85 74 50 32 26 19 10 18 355 23 38 21 14 2 2 349 340 348 357 1 2 356 0 352 358 17 32 29 28 31 28 23 26 30 29 34 35 35 35 39 44 50 43 31 23 34 47 31 23 29 29 48 59 61 54 56
151 161 157 147 128 132 106 100 106 108 106 108 106 105 105 108 109 106 100 79 68 90 105 116 110 110 107 101 105 94 86 74 39 26 27 19 22 8 344 355 26 23 22 17 1 355 342 342 346 355 354 352 340 341 352 359 11 33 23 26 26 22 25 29 15 24 33 33 34 38 38 38 42 51 51 52 46 43 30 25 42 52 66 65 34 4 72
170 141 142 92 96 99 113 125 116 113 115 113 113 114 115 107 102 110 111 109 91 86 72 96 114 118 119 121 97 86 70 34 335 258 104 27 20 15 6 28 11 13 5 12 11 1 339 332 333 342 342 340 343 334 345 1 19 23 26 21 18 15 19 24 23 13 30 41 37 46 39 38 39 47 44 40 46 47 47 44 42 38 42 46 49 47 59
71 109 117 120 120 123 132 126 121 116 121 118 110 104 103 112 114 111 103 113 123 107 82 47 69 125 108 119 101 99 58 35 39 31 27 22 14 13 32 47 35 26 18 14 13 350 333 339 333 337 334 337 343 334 342 348 19 31 31 37 17 357 359 359 21 43 25 46 56 54 47 45 44 44 45 51 39 37 43 49 46 45 40 36 37 47 53
140 140 120 114 114 107 109 113 109 108 112 117 117 121 123 112 105 111 113 113 120 126 120 105 58 71 115 86 84 88 86 44 35 42 35 30 18 31 22 29 24 14 355 346 353 1 7 4 2 357 360 349 343 343 344 358 358 11 15 35 21 1 352 347 353 19 48 44 46 70 67 63 51 45 54 56 58 39 25 41 54 52 47 43 45 50 56
107 108 104 98 93 99 103 94 78 95 100 102 99 91 93 104 111 102 108 119 116 114 120 125 106 47 98 114 92 86 68 41 10 34 49 25 14 13 7 353 328 330 350 11 20 15 7 4 3 5 9 348 343 338 349 2 10 36 28 38 38 20 352 348 360 7 7 41 46 45 75 76 76 75 60 59 62 54 48 28 18 29 37 37 37 50 51
100 111 113 99 97 108 124 130 150 147 107 94 104 106 103 100 97 101 97 90 103 111 122 131 123 123 76 93 111 80 103 77 47 42 56 45 25 349 312 313 330 351 20 20 18 3 355 357 7 6 356 343 337 338 353 27 24 24 24 31 47 26 11 11 32 15 18 20 64 82 62 89 92 89 75 51 50 50 61 62 56 38 9 13 26 36 44
110 105 94 134 145 146 154 120 112 111 110 111 111 110 119 112 105 98 93 89 73 75 78 97 120 110 88 40 89 52 36 55 71 38 54 27 342 325 339 338 348 9 26 29 7 357 360 1 359 358 347 341 340 336 345 14 47 32 13 8 20 43 25 23 25 31 22 32 51 126 132 106 99 90 76 67 65 69 59 61 61 59 38 22 20 28 47
82 86 82 84 101 109 106 105 100 98 90 85 99 110 107 92 84 89 82 89 103 79 86 53 60 92 119 119 98 104 94 100 98 87 82 354 340 345 331 335 331 14 36 15 7 4 1 2 356 349 337 340 342 339 342 6 47 39 18 8 7 21 32 25 57 53 47 40 25 55 129 128 117 100 88 73 63 61 56 64 65 52 41 6 8 24 33
97 97 96 101 106 109 107 104 112 111 111 115 105 88 103 110 99 101 117 104 109 145 173 124 99 89 110 124 160 149 143 155 154 143 65 341 338 344 348 335 18 21 15 10 349 344 348 348 344 333 319 336 334 332 340 4 39 59 29 19 16 359 5 4 30 74 68 55 49 60 86 87 83 104 112 100 81 61 66 63 54 51 24 359 5 22 28
98 95 99 105 108 106 113 122 114 113 110 105 112 102 71 89 123 139 172 198 54 220 226 162 148 121 122 168 189 179 130 124 113 42 329 320 315 326 354 30 59 356 329 305 310 327 333 334 323 309 310 322 327 331 349 10 358 44 50 0 352 1 353 11 21 37 88 82 57 74 77 95 120 129 139 128 101 91 67 56 42 35 10 339 347 335 321
108 104 105 107 111 113 107 109 111 116 128 127 117 131 151 141 158 178 191 188 207 199 185 168 156 165 175 131 113 120 101 82 46 358 337 331 328 345 358 28 66 256 269 284 297 310 317 330 348 325 322 325 329 336 2 15 14 15 25 329 354 358 360 1 19 18 25 87 112 89 114 138 149 140 153 168 155 124 113 96 80 22 282 295 278 278 313
120 115 108 109 105 112 125 141 134 144 151 160 176 162 157 139 136 167 184 160 137 157 165 190 175 157 149 127 119 105 89 67 351 2 345 327 314 312 324 300 277 271 282 270 266 271 268 322 314 304 321 326 334 343 3 7 4 18 7 308 343 346 13 41 353 53 41 34 60 133 143 137 160 188 230 229 98 109 116 126 157 203 246 267 282 330 2
140 147 152 158 152 153 156 170 171 153 152 75 92 125 144 162 160 162 138 132 123 149 173 176 172 150 134 131 121 101 91 79 305 277 282 290 292 304 316 305 286 283 269 272 269 264 252 256 276 308 321 332 342 344 348 355 350 9 347 275 31 17 2 1 15 52 62 36 43 58 92 118 115 169 175 144 124 139 151 161 184 203 238 272 306 349 11
150 152 157 162 164 158 153 150 162 160 151 164 183 146 160 166 154 167 160 161 173 189 161 130 130 132 125 121 121 123 143 185 212 220 251 263 282 305 314 333 352 2 356 342 333 308 285 293 300 318 339 356 1 355 357 352 341 346 339 316 57 41 357 353 37 30 56 130 79 67 60 87 123 135 136 137 151 152 156 169 191 204 220 250 313 25 27
130 129 139 152 161 158 156 159 165 164 170 180 190 182 178 184 164 154 174 199 163 128 131 125 126 119 126 139 157 186 208 230 231 240 260 271 278 294 328 10 8 2 358 331 305 292 324 330 331 347 17 18 5 348 356 350 337 345 355 47 40 12 2 23 50 47 20 43 79 45 35 40 131 145 140 143 147 153 165 172 198 229 254 274 360 46 17
162 157 168 167 165 153 158 160 159 160 175 185 184 169 176 185 192 185 141 141 148 143 139 133 121 140 182 201 198 203 223 226 227 231 242 265 296 332 7 351 1 20 10 341 280 301 332 351 346 354 23 32 16 354 351 1 4 2 66 52 44 24 15 7 10 53 25 344 11 97 63 46 50 83 136 146 168 202 206 203 183 180 249 285 4 167 171
195 165 162 166 168 167 180 180 169 157 141 140 197 199 190 181 174 168 171 166 158 153 152 162 166 171 151 130 165 235 257 249 234 238 245 277 295 332 320 313 292 289 315 265 244 318 315 327 342 351 8 34 22 351 348 8 9 21 62 70 44 29 30 20 7 15 37 355 320 38 96 73 52 24 241 196 181 197 224 242 194 178 167 278 243 232 206
138 140 159 157 149 148 136 131 148 173 173 183 196 197 188 165 157 142 157 176 170 151 150 147 121 121 142 159 222 257 260 251 237 225 227 234 215 211 263 256 242 228 231 246 288 287 289 303 322 335 352 20 15 353 352 9 25 27 34 60 50 54 55 45 32 4 2 338 324 325 324 72 159 154 266 263 198 190 207 225 282 249 214 231 236 241 221
164 165 168 155 161 159 150 166 182 190 193 184 163 170 170 145 156 154 150 155 177 168 158 143 144 160 179 194 219 244 249 241 221 212 230 215 171 260 305 293 264 249 249 260 265 263 265 271 290 299 307 24 51 8 350 15 27 36 31 53 64 71 79 88 56 28 9 11 4 356 345 333 313 284 250 248 244 210 197 165 174 202 226 231 234 236 228
173 161 161 167 167 162 165 164 186 196 185 197 197 152 154 151 146 137 165 178 176 163 164 169 171 187 195 203 209 229 251 237 201 203 183 134 216 261 256 274 281 281 271 254 243 245 249 242 213 266 287 69 60 25 3 29 39 48 50 58 81 88 59 33 36 34 32 16 18 14 352 329 329 325 323 328 314 275 246 199 184 200 205 217 225 218 228
172 158 153 156 161 169 174 168 147 154 197 207 180 150 151 152 156 177 178 154 153 169 171 192 198 197 196 208 242 275 277 253 214 198 182 190 211 192 202 265 258 252 302 311 268 249 251 257 232 237 254 82 76 40 49 64 51 55 56 57 54 39 35 17 25 349 357 8 21 18 11 11 0 336 330 337 325 315 309 277 240 215 229 238 238 237 231
151 156 160 162 161 156 152 159 173 174 171 180 163 165 163 166 141 106 121 148 159 164 186 200 214 227 223 215 211 253 267 276 257 225 231 250 231 197 194 235 265 273 299 317 329 272 254 246 254 254 123 118 106 87 74 74 67 65 55 4 358 349 352 351 340 328 347 359 0 1 20 12 7 8 358 325 298 273 261 255 256 251 230 230 239 227 209
161 157 156 154 162 167 159 155 147 133 147 190 181 159 164 165 166 156 156 160 168 180 181 200 205 215 225 209 201 236 259 267 269 219 112 318 326 256 224 239 259 264 277 273 261 273 298 299 290 345 78 130 122 102 85 83 82 78 85 352 313 309 319 329 335 340 340 335 313 314 334 327 320 304 291 299 308 298 245 241 248 240 237 235 234 225 219
159 163 164 163 152 141 149 147 153 173 178 150 142 150 163 165 174 172 160 164 176 188 195 194 197 208 208 198 202 215 218 213 190 151 133 138 335 299 270 215 238 250 257 239 246 315 341 359 359 50 109 120 108 103 93 89 85 78 88 145 279 294 300 309 309 312 311 314 313 309 299 282 272 279 291 303 298 307 318 297 267 263 249 239 233 224 217
162 157 144 134 146 165 176 178 171 129 118 127 126 137 168 166 176 177 181 172 178 192 195 193 191 201 196 200 214 226 235 228 219 208 197 168 164 215 221 231 254 241 341 79 18 13 38 25 72 112 130 136 138 125 138 140 119 89 59 38 309 290 295 299 300 298 300 301 302 312 299 285 283 278 284 291 290 303 318 318 302 264 233 236 238 240 231
149 145 162 168 174 168 146 119 111 116 114 122 147 188 220 191 182 180 177 178 198 206 194 190 202 206 195 183 172 179 212 268 294 238 229 253 251 287 247 168 137 124 110 113 79 36 9 15 17 24 99 154 158 157 163 154 147 154 241 275 273 271 274 276 279 287 293 294 291 289 290 282 284 299 304 303 303 304 312 315 301 283 250 235 239 241 236
156 165 180 171 149 134 120 123 123 139 156 171 184 195 191 160 164 186 163 140 170 184 195 212 219 223 200 202 216 204 176 161 185 270 227 225 220 126 108 121 143 137 131 95 73 18 27 24 21 29 47 82 128 137 181 161 189 221 249 267 277 281 286 297 298 294 286 283 286 298 307 324 332 333 331 329 304 283 282 292 297 302 288 240 243 238 219
166 165 161 141 135 139 145 154 158 160 185 192 178 183 162 146 139 143 139 136 137 154 187 226 230 255 257 224 204 214 202 163 142 204 242 168 161 161 177 152 132 122 103 100 76 42 28 33 35 42 45 51 65 69 66 15 319 318 308 310 304 303 296 288 281 274 274 281 272 269 273 290 294 299 307 312 302 283 276 278 285 290 300 292 261 250 262
133 118 127 141 146 154 159 158 172 193 186 169 187 170 159 138 141 194 186 172 170 160 148 264 298 302 313 330 293 221 189 180 175 110 109 128 133 126 127 124 115 110 112 111 92 55 31 37 38 41 41 43 45 50 41 48 28 1 348 339 339 329 316 308 298 305 298 302 298 280 284 279 286 298 297 301 317 322 317 298 289 296 307 312 315 311 300
148 153 162 171 173 170 170 174 185 182 177 184 174 158 159 169 177 179 179 166 142 145 167 201 330 321 330 42 45 67 134 128 128 140 128 114 113 116 117 119 120 119 111 100 98 93 67 58 52 53 57 57 59 56 52 56 60 54 46 38 25 19 21 19 21 19 16 5 354 356 356 351 352 347 348 351 345 341 346 347 341 340 2 360 352 350 209
164 164 159 151 150 151 162 147 121 174 165 151 146 158 175 170 147 152 168 188 175 173 169 146 193 268 189 162 139 119 108 122 124 113 113 122 120 117 119 120 116 110 108 110 112 102 84 83 80 79 77 77 74 73 72 70 68 64 57 50 48 44 43 39 34 38 34 26 31 35 30 25 23 23 15 5 2 1 3 359 359 358 359 354 321 301 295